www.pogodaiklimat.ru

Погода и климат >> Архив погоды >> Россия >> Нижегородская область >> Нижний Новгород аэропорт


ПОГОДА в Нижнем Новгороде аэропорт

  • Прогноз погоды в Нижнем Новгороде аэропорт
  • Монитор погоды в Нижнем Новгороде аэропорт
  • Климат города

АРХИВ ПОГОДЫ в Нижнем Новгороде аэропорт

Время (UTC), дата Ветер
(напр.,м/с)
 
Видим.   Явления Облачность Т
(С)
Тd
(С)
f
(%)
Тe
(С)
Тes
(С)
Комфортность P
(гПа)
Po
(гПа)
Тmin
(С)
Tmax
(С)
R
(мм)
R24
(мм)
S
(см)
09 17.11 З 3-5
{7}
10 км 10/10 400 м
[Sc]
+2.0 -0.1 86 -2 -2 1019.7 1020.0
12 17.11 З 2-5
{7}
10 км 9/9 480 м
[Sc]
+1.6 -1.0 83 -2 -2 1020.6 1021.0
15 17.11 ЮЗ 2-4
{6}
10 км в посл. час снег 10/10 600 м
[Sc]
+1.3 -0.6 87 -2 -2 1020.3 1020.0 +2.4 0.0
18 17.11 ЮЗ 3-6
{8}
10 км {снег} 9/9 800 м
[Sc]
+1.6 -1.3 81 -3 -3 1019.0 1019.0
21 17.11 ЮЗ 3-6
{9}
10 км 10/10 600 м
[Sc]
+0.6 -2.8 78 -4 -4 1018.4 1018.0
00 18.11 ЮЗ 4-7
{10}
10 км 10/10 500 м
[Sc]
+0.5 -2.2 82 -5 -5 1017.1 1017.0
03 18.11 ЮЗ 4-8
{9}
10 км 10/10 660 м
[Sc]
+1.1 -1.8 81 -4 -4 1016.2 1016.0 +0.3
06 18.11 ЮЗ 3-6
{8}
10 км слабый дождь 10/10 480 м
[Sc]
+1.5 -0.9 84 -3 -3 1016.6 1017.0
09 18.11 ЮЗ 3-6
{7}
10 км {снег, дождь} 10/10 360 м
[Sc]
+2.0 -0.2 85 -2 -2 1017.6 1018.0
12 18.11 ЮЗ 2-4
{6}
10 км {снег, дождь} 10/10 360 м
[Sc]
+2.3 +0.2 86 -1 -1 1017.7 1018.0
15 18.11 ЮЗ 3-5
{6}
10 км 10/10 360 м
[Sc]
+2.2 -0.2 84 -2 -2 1018.5 1019.0 +2.4 0.0
18 18.11 Ю 3-4
{5}
9000 м 10/10 500 м
[Sc]
+2.1 +0.3 88 -2 -2 1018.4 1018.0
21 18.11 ЮЗ 2-4
{5}
9000 м 10/10 420 м
[Sc]
+2.0 -0.1 86 -1 -1 1018.0 1018.0
00 19.11 Ю 2-4
{5}
10 км 10/10 480 м
[Sc]
+1.7 -0.4 86 -2 -2 1017.5 1018.0
03 19.11 Ю 3-5
{6}
6000 м в посл. час дождь 10/10 270 м
[Sc]
+1.8 +0.6 92 -3 -3 1016.7 1017.0 +1.5 0.0
06 19.11 Ю 4-5
{6}
5000 м слабый дождь 10/10 240 м
[Frnb]
+1.2 +0.6 96 -4 -4 1016.7 1017.0 +1.1
09 19.11 Ю 5-7
{8}
10 км {дождь} 10/10 400 м
[St]
+1.9 +0.3 89 -4 -4 1016.4 1016.0
12 19.11 ЮВ 3-4
{7}
9000 м слабый дождь {снег} 10/10 240 м
[Frnb]
+1.5 +0.8 95 -3 -3 1015.0 1015.0
15 19.11 Ю 5-7
{7}
10 км 10/10 240 м
[St]
+1.5 +0.6 94 -4 -4 1014.2 1014.0 +1.9 2
18 19.11 Ю 4-5
{7}
9000 м слабый дождь 10/10 210 м
[Frnb]
+1.3 +0.9 97 -4 -4 1013.1 1013.0
21 19.11 ЮВ 4-6
{6}
9000 м в посл. час дождь со снегом 10/10 240 м
[St]
+1.3 +0.7 96 -4 -4 1012.0 1012.0
00 20.11 Ю 4-6
{7}
10 км в посл. час дождь {снег} 10/10 180 м
[St]
+1.5 +1.1 97 -4 -4 1010.6 1011.0
03 20.11 Ю 3-4
{6}
9000 м в посл. час дождь 10/10 180 м
[St]
+2.3 +2.0 98 -2 -2 1010.1 1010.0 +1.0 2
06 20.11 ЮЗ 2-5
{5}
10 км в посл. час дождь 10/10 240 м
[Sc]
+3.3 +2.9 97 0 0 1011.0 1011.0
09 20.11 З 2-4
{7}
10 км 10/10 540 м
[Sc]
+2.9 +1.4 90 -0 -0 1012.8 1013.0
12 20.11 З 2-3
{6}
10 км 10/10 420 м
[Sc]
+2.8 +0.4 84 -0 -0 1014.0 1014.0
15 20.11 штиль 0
{4}
10 км 10/10 360 м
[Sc]
+2.0 +1.1 94 +1 +1 1014.4 1014.0 +3.6 0.4
18 20.11 С 3-4
{4}
7000 м 10/10 500 м
[Sc]
+2.0 +1.1 94 -2 -2 1013.9 1014.0
21 20.11 СВ 2-3
{6}
3900 м слабый дождь 10/10 210 м
[Frnb Ns]
+1.0 +0.3 95 -3 -3 1012.7 1013.0
00 21.11 СВ 3-4
{6}
4100 м слабый снег {ливн. осадки} [диам. отлож. мокр. снега 1 мм] 10/10 120 м
[Frnb Ns]
+0.3 0.0 98 -5 -5 1009.4 1009.0
03 21.11 В 3-5
{7}
2900 м слабая морось {снег, дождь} 10/10 90 м
[St]
+2.0 +1.7 98 -3 -3 1005.8 1006.0 +0.2 6 <0.5
06 21.11 ЮВ 4-6
{7}
10 км слабый дождь {ливн. осадки, снег} 10/10 240 м
[Sc]
+4.6 +4.2 97 0 0 1004.2 1004.0
09 21.11 Ю 4-6
{8}
7000 м слабый дождь 10/10 240 м
[Sc]
+3.6 +3.0 96 -1 -1 1004.1 1004.0
12 21.11 Ю 4-6
{8}
5000 м слабый дождь 10/10 210 м
[Sc]
+3.3 +2.9 97 -2 -2 1004.2 1004.0
15 21.11 ЮВ 2-4
{6}
6000 м слабый дождь 10/10 180 м
[Sc]
+3.1 +2.7 97 -0 -0 1004.2 1004.0 +4.7 8
18 21.11 ЮВ 3-4
{5}
5000 м слабый дождь 10/10 180 м
[Sc]
+3.4 +3.1 98 -1 -1 1003.8 1004.0
21 21.11 ЮВ 3-3
{4}
10 км в посл. час дождь 10/10 180 м
[Sc]
+3.7 +3.4 98 -0 -0 1003.6 1004.0
00 22.11 Ю 2-3
{5}
6000 м слабый дождь 10/10 150 м
[Sc]
+3.7 +3.4 98 +1 +1 1003.7 1004.0
03 22.11 ЮВ 2-3
{5}
8000 м в посл. час дождь 10/10 150 м
[Sc]
+3.5 +3.2 98 0 0 1003.1 1003.0 +3.1 3
06 22.11 ЮВ 4-5
{6}
5000 м дымка {дождь} 10/10 120 м
[St]
+2.9 +2.6 98 -2 -2 1003.0 1003.0 +2.9
09 22.11 ЮВ 4-6
{6}
10 км 10/10 270 м
[Sc]
+2.6 +1.4 92 -2 -2 1002.9 1003.0
12 22.11 нст 1-2
{7}
10 км 10/10 330 м
[Sc]
+2.7 +0.9 88 +1 +1 1002.3 1002.0
15 22.11 ЮВ 2-2
{5}
9000 м 10/10 300 м
[Sc]
+2.2 +0.7 90 -1 -1 1002.5 1003.0 +3.5
18 22.11 ЮВ 2-3
{5}
8000 м 10/10 180 м
[Sc]
+2.0 +1.1 94 -1 -1 1003.4 1003.0
21 22.11 штиль 0
{3}
600 м морось {туман} туман 10/10 90 м
[St]
+1.8 +1.5 98 +1 +1 1004.0 1004.0
00 23.11 СЗ 4-5
{5}
2600 м слабая морось {туман} 10/10 120 м
[St]
+1.4 +1.3 99 -4 -4 1004.7 1005.0
03 23.11 СЗ 4-8
{9}
4800 м слабый снег {дождь} [диам. гололёда 1 мм] 10/10 180 м
[Sc]
-0.9 -1.5 96 -7 -7 1006.7 1007.0 -0.9 1 <0.5
06 23.11 СЗ 4-7
{9}
1400 м снег {дождь} [диам. гололёда 1 мм] 10/10 180 м
[Frnb Ns]
-2.1 -2.9 94 -8 -8 1009.2 1009.0 -2.1
09 23.11 С 5-9
{9}
8000 м слабый снег [диам. гололёда 1 мм] 10/10 240 м
[Frnb Ns]
-1.9 -3.6 88 -8 -8 1010.6 1011.0
12 23.11 С 5-8
{11}
10 км {снег} 10/10 360 м
[St]
-2.7 -4.9 85 -9 -9 1012.7 1013.0
15 23.11 С 4-7
{9}
10 км слабый снег 10/10 270 м
[Frnb]
-3.3 -5.0 88 -9 -9 1015.6 1016.0 -0.9 3
18 23.11 СЗ 4-6
{9}
3300 м слабый снег 10/10 300 м
[Frnb Ns]
-4.1 -5.6 89 -10 -10 1017.6 1018.0
21 23.11 СЗ 3-5
{8}
10 км слабый снег 10/10 330 м
[Frnb]
-4.6 -6.6 86 -10 -10 1020.1 1020.0
00 24.11 СЗ 3-5
{6}
9000 м слабый снег 10/10 300 м
[Frnb]
-4.9 -6.6 88 -10 -10 1021.4 1021.0
03 24.11 СЗ 2-3
{6}
9000 м слабый снег 10/10 330 м
[Frnb]
-5.1 -6.8 88 -9 -9 1022.8 1023.0 -5.1 0.9 3
06 24.11 СЗ 3-4
{5}
10 км в посл. час снег 10/10 330 м
[Frnb]
-5.0 -6.8 87 -11 -11 1023.9 1024.0

 

Местоположение метеостанции Нижний Новгород аэропорт (Нижегородская область, Россия): широта 56.22 долгота 43.77 высота над уровнем моря 77 м.

В архиве по умолчанию представлена погода в Нижнем Новгороде аэропорт за последнюю неделю. Архивные данные за месяц целиком и за предыдущие месяцы, начиная с января 2011 года, Вы можете получить, выбрав интересующий диапазон дат из раскрывающегося списка и нажав кнопку "Ввод!".

Внимание! Время в таблицах - всемирное. Для получения местного времени необходимо прибавить поправку, которая в Нижнем Новгороде аэропорт равна 3 ч.

Смотрите также архив погоды в соседних городах и на ближайших метеорологических станциях:

Погода в Нижнем Новгороде (Нижегородская область, Россия) (15 км)
Погода в Дальнем Константиново (Нижегородская область, Россия) (51 км)
Погода в Павлово (Нижегородская область, Россия) (55 км)
Погода в Волжской ГМО (Нижегородская область, Россия) (55 км)
Погода в Семенове (Нижегородская область, Россия) (73 км)
Погода в Лысково (Нижегородская область, Россия) (82 км)
Погода в Арзамасе (Нижегородская область, Россия) (95 км)
Погода в Вязниках (Владимирская область, Россия) (99 км)
Погода в Воскресенском (Нижегородская область, Россия) (121 км)
Погода в Муроме (Владимирская область, Россия) (129 км)

Пояснения к столбцам:

Ветер - указаны скорость ветра в м/с - средняя за 10 мин, порывы в срок и между сроками (в фигурных скобках) и направление, откуда дует ветер: С - северный, СВ - северо-восточный, В - восточный, ЮВ - юго-восточный, Ю - южный, ЮЗ - юго-западный, З - западный, СЗ - северо-западный.
Видимость - горизонтальная дальность видимости в метрах или километрах. При видимости от 1 до 10 км при отсутствии осадков обычно наблюдается дымка, при ухудшении видимости до 1 км и менее - туман. В сухую погоду видимость может ухудшаться дымом, пылью или мглою.
Явления - указаны атмосферные явления, наблюдавшиеся в срок или в последний час перед сроком; фигурными скобками обозначены явления, наблюдавшиеся между сроками (за 1-3 часа до срока); квадратными скобками обозначены град или гололедные отложения с указанием их диаметра в мм.
Облачность - указаны через наклонную черту общая и нижняя облачность в баллах и высота нижней границы облаков в метрах; квадратными скобками обозначены формы облаков: Ci - перистые, Cs - перисто-слоистые, Cc - перисто-кучевые, Ac - высококучевые, As - высокослоистые, Sc - слоисто-кучевые, Ns - слоисто-дождевые, Cu - кучевые, Cb - кучево-дождевые. Подробнее классификацию облаков см. в Атласе облаков (PDF).
T - Температура воздуха - температура, измеренная на высоте 2 м над землей.
Td - Температура точки росы - температура, при понижении до которой содержащийся в воздухе водяной пар достигнет насыщения.
f - Относительная влажность воздуха - влажноcть воздуха, измеренная на высоте 2 м над землей.
Te - Эффективная температура - температура, которую ощущает одетый по сезону человек в тени. Характеристика душности погоды. При расчете учитывается влияние влажности воздуха и скорости ветра на теплоощущения человека.
Tes - Эффективная температура на солнце - температура, которую ощущает человек, с поправкой на солнечный нагрев. Характеристика знойности погоды. Зависит от высоты солнца над горизонтом, облачности и скорости ветра. Ночью, в пасмурную погоду, а также при ветре 12 м/с и более поправка равна нулю.
P - Атмосферное давление - приведенное к уровню моря атмосферное давление.
Po - Атмосферное давление - измеренное на уровне метеостанции атмосферное давление.
Tmin - Минимальная температура - минимум температуры воздуха на высоте 2 м над землей.
Tmax - Максимальная температура - максимум температуры воздуха на высоте 2 м над землей.
R - Количество осадков - Количество выпавших осадков за период времени, мм. При наведении курсора мыши на число - период времени, за который выпало указанное количество осадков.
R24 - Количество осадков - Количество выпавших осадков за 24 часа, мм.
S - Снежный покров - Высота снежного покрова, см. При наведении курсора мыши на число - состояние снежного покрова и степень покрытия местности в баллах.